When you browse on this site, cookies collect data to enhance your experience and personalize the content and advertising you see.
Visit our Privacy Policy to learn more. By continuing to use the site, you agree to this use of cookies and data.
  • In Hungary
  • List of Countries
  • For 7 days
  • Water Temperature
  • Weather Map
  • News
  • Weather Widgets
  • user-avatar
    Login

    Hourly Weather Tradate

    Today, 13 December, Friday

    Time Temperature Precipitation Wind Pressure Humidity
    00:00 +2°C° 0 mm 0 mps 722 mmHg 83%
    01:00 +2°C° 0 mm 0 mps 722 mmHg 80%
    02:00 +1°C° 0 mm 0 mps 721 mmHg 81%
    03:00 +1°C° 0 mm 0 mps 720 mmHg 83%
    04:00 +1°C° 0 mm 0 mps 719 mmHg 84%
    05:00 +1°C° 0.2 mm 0 mps 718 mmHg 87%
    06:00 +1°C° 0.2 mm 0 mps 717 mmHg 89%
    07:00 +2°C° 0 mm 1 mps 716 mmHg 93%
    08:00 +2°C° 0.9 mm 1 mps 716 mmHg 93%
    09:00 +2°C° 0.9 mm 1 mps 715 mmHg 94%
    10:00 +2°C° 0.9 mm 1 mps 715 mmHg 95%
    11:00 +2°C° 0.7 mm 1 mps 714 mmHg 93%
    12:00 +2°C° 0.7 mm 1 mps 714 mmHg 92%
    13:00 +3°C° 0 mm 1 mps 713 mmHg 87%
    14:00 +3°C° 0 mm 1 mps 713 mmHg 87%
    15:00 +3°C° 0 mm 1 mps 713 mmHg 87%
    16:00 +2°C° 0 mm 2 mps 714 mmHg 87%
    17:00 +2°C° 0 mm 2 mps 714 mmHg 84%
    18:00 +2°C° 0 mm 2 mps 715 mmHg 82%
    19:00 0°C° 0 mm 3 mps 716 mmHg 79%
    20:00 +1°C° 0 mm 3 mps 717 mmHg 75%
    21:00 +1°C° 0 mm 3 mps 717 mmHg 71%
    22:00 0°C° 0 mm 4 mps 718 mmHg 66%
    23:00 +1°C° 0 mm 3 mps 719 mmHg 64%

    Tomorrow, 14 December, Saturday

    Time Temperature Precipitation Wind Pressure Humidity
    00:00 +1°C° 0 mm 3 mps 720 mmHg 63%
    01:00 +2°C° 0 mm 3 mps 720 mmHg 61%
    02:00 +1°C° 0 mm 3 mps 720 mmHg 62%
    03:00 +1°C° 0 mm 3 mps 720 mmHg 63%
    04:00 +2°C° 0 mm 2 mps 721 mmHg 64%
    05:00 +2°C° 0 mm 2 mps 721 mmHg 67%
    06:00 +2°C° 0 mm 2 mps 721 mmHg 69%
    07:00 +2°C° 0 mm 2 mps 722 mmHg 72%
    08:00 +4°C° 0 mm 1 mps 722 mmHg 70%
    09:00 +5°C° 0 mm 1 mps 723 mmHg 68%
    10:00 +6°C° 0 mm 1 mps 724 mmHg 66%
    11:00 +7°C° 0 mm 1 mps 724 mmHg 64%
    12:00 +8°C° 0 mm 1 mps 725 mmHg 62%
    13:00 +9°C° 0 mm 1 mps 725 mmHg 61%
    14:00 +8°C° 0 mm 1 mps 725 mmHg 64%
    15:00 +7°C° 0 mm 1 mps 726 mmHg 67%
    16:00 +7°C° 0 mm 1 mps 726 mmHg 70%
    17:00 +7°C° 0 mm 1 mps 727 mmHg 72%
    18:00 +6°C° 0 mm 1 mps 728 mmHg 73%
    19:00 +6°C° 0 mm 1 mps 728 mmHg 75%
    20:00 +6°C° 0 mm 1 mps 729 mmHg 75%
    21:00 +5°C° 0 mm 1 mps 729 mmHg 75%
    22:00 +5°C° 0 mm 1 mps 730 mmHg 74%
    23:00 +5°C° 0 mm 1 mps 730 mmHg 74%

    Day after tomorrow, 15 December, Sunday

    Time Temperature Precipitation Wind Pressure Humidity
    00:00 +4°C° 0 mm 1 mps 730 mmHg 74%
    01:00 +4°C° 0 mm 1 mps 730 mmHg 74%
    02:00 +4°C° 0 mm 1 mps 730 mmHg 75%
    03:00 +4°C° 0 mm 1 mps 730 mmHg 76%
    04:00 +4°C° 0 mm 1 mps 730 mmHg 76%
    05:00 +4°C° 0 mm 1 mps 731 mmHg 77%
    06:00 +3°C° 0 mm 1 mps 731 mmHg 77%
    07:00 +3°C° 0 mm 1 mps 732 mmHg 78%
    08:00 +4°C° 0 mm 1 mps 732 mmHg 75%
    09:00 +4°C° 0 mm 0 mps 733 mmHg 73%
    10:00 +4°C° 0 mm 0 mps 733 mmHg 71%
    11:00 +5°C° 0 mm 0 mps 733 mmHg 70%
    12:00 +6°C° 0 mm 0 mps 733 mmHg 69%
    13:00 +6°C° 0 mm 0 mps 732 mmHg 68%
    14:00 +6°C° 0 mm 0 mps 733 mmHg 70%
    15:00 +6°C° 0 mm 0 mps 733 mmHg 72%
    16:00 +5°C° 0 mm 0 mps 733 mmHg 74%
    17:00 +5°C° 0 mm 0 mps 734 mmHg 75%
    18:00 +5°C° 0 mm 0 mps 734 mmHg 75%
    19:00 +5°C° 0 mm 0 mps 735 mmHg 76%
    20:00 +5°C° 0 mm 0 mps 735 mmHg 77%
    21:00 +5°C° 0 mm 0 mps 735 mmHg 78%
    22:00 +5°C° 0 mm 0 mps 736 mmHg 78%
    23:00 +5°C° 0.1 mm 0 mps 736 mmHg 81%

    16 December, Monday

    Time Temperature Precipitation Wind Pressure Humidity
    00:00 +5°C° 0.1 mm 0 mps 736 mmHg 83%
    01:00 +5°C° 0.1 mm 0 mps 736 mmHg 86%
    02:00 +5°C° 0.1 mm 0 mps 736 mmHg 87%
    03:00 +5°C° 0.1 mm 0 mps 736 mmHg 88%
    04:00 +5°C° 0.1 mm 0 mps 736 mmHg 89%
    05:00 +5°C° 0 mm 0 mps 736 mmHg 89%
    06:00 +5°C° 0 mm 0 mps 736 mmHg 90%
    07:00 +5°C° 0 mm 0 mps 736 mmHg 90%
    08:00 +5°C° 0.1 mm 0 mps 736 mmHg 90%
    09:00 +6°C° 0.1 mm 0 mps 736 mmHg 90%
    10:00 +6°C° 0.1 mm 0 mps 736 mmHg 90%
    11:00 +6°C° 0.3 mm 0 mps 736 mmHg 91%
    12:00 +6°C° 0.3 mm 0 mps 736 mmHg 91%
    13:00 +6°C° 0.3 mm 0 mps 735 mmHg 92%
    14:00 +6°C° 0.2 mm 0 mps 735 mmHg 92%
    15:00 +6°C° 0.2 mm 0 mps 735 mmHg 92%
    16:00 +6°C° 0.2 mm 0 mps 735 mmHg 93%
    17:00 +6°C° 0.2 mm 0 mps 735 mmHg 92%
    18:00 +6°C° 0.2 mm 0 mps 735 mmHg 92%
    19:00 +6°C° 0.2 mm 0 mps 735 mmHg 92%
    20:00 +6°C° 0.3 mm 0 mps 735 mmHg 92%
    21:00 +6°C° 0.3 mm 0 mps 735 mmHg 93%
    22:00 +7°C° 0.3 mm 1 mps 735 mmHg 93%
    23:00 +7°C° 0.7 mm 1 mps 734 mmHg 93%

    17 December, Tuesday

    Time Temperature Precipitation Wind Pressure Humidity
    00:00 +7°C° 0.7 mm 1 mps 734 mmHg 93%
    01:00 +7°C° 0.7 mm 1 mps 734 mmHg 93%
    02:00 +7°C° 0.9 mm 1 mps 734 mmHg 94%
    03:00 +7°C° 0.9 mm 1 mps 734 mmHg 94%
    04:00 +7°C° 0.9 mm 1 mps 734 mmHg 94%
    05:00 +7°C° 1.2 mm 1 mps 733 mmHg 94%
    06:00 +8°C° 1.2 mm 1 mps 733 mmHg 95%
    07:00 +8°C° 1.2 mm 1 mps 733 mmHg 95%
    08:00 +8°C° 1.9 mm 1 mps 733 mmHg 95%
    09:00 +8°C° 1.9 mm 1 mps 733 mmHg 95%
    10:00 +8°C° 1.9 mm 1 mps 733 mmHg 95%
    11:00 +8°C° 2.5 mm 1 mps 733 mmHg 96%
    12:00 +8°C° 2.5 mm 1 mps 733 mmHg 96%
    13:00 +8°C° 2.5 mm 1 mps 732 mmHg 96%
    14:00 +8°C° 3.1 mm 1 mps 732 mmHg 97%
    15:00 +8°C° 3.1 mm 1 mps 732 mmHg 97%
    16:00 +8°C° 3.1 mm 1 mps 732 mmHg 97%
    17:00 +8°C° 3.2 mm 1 mps 732 mmHg 96%
    18:00 +8°C° 3.2 mm 1 mps 732 mmHg 95%
    19:00 +8°C° 3.2 mm 1 mps 732 mmHg 94%
    20:00 +8°C° 3.6 mm 1 mps 733 mmHg 95%
    21:00 +8°C° 3.6 mm 1 mps 733 mmHg 96%
    22:00 +8°C° 3.6 mm 1 mps 733 mmHg 97%
    23:00 +9°C° 4 mm 1 mps 733 mmHg 97%

    18 December, Wednesday

    Time Temperature Precipitation Wind Pressure Humidity
    00:00 +9°C° 4 mm 1 mps 733 mmHg 97%
    01:00 +8°C° 4 mm 2 mps 733 mmHg 96%
    02:00 +8°C° 2.6 mm 2 mps 733 mmHg 96%
    03:00 +8°C° 2.6 mm 2 mps 733 mmHg 95%
    04:00 +8°C° 2.6 mm 2 mps 732 mmHg 95%
    05:00 +8°C° 3 mm 2 mps 732 mmHg 95%
    06:00 +8°C° 3 mm 2 mps 732 mmHg 95%
    07:00 +8°C° 3 mm 2 mps 732 mmHg 96%
    08:00 +8°C° 2.5 mm 2 mps 733 mmHg 95%
    09:00 +8°C° 2.5 mm 2 mps 733 mmHg 94%
    10:00 +8°C° 2.5 mm 2 mps 733 mmHg 93%
    11:00 +8°C° 1.8 mm 2 mps 733 mmHg 93%
    12:00 +8°C° 1.8 mm 2 mps 733 mmHg 93%
    13:00 +8°C° 1.8 mm 2 mps 732 mmHg 93%
    14:00 +8°C° 1.7 mm 2 mps 733 mmHg 93%
    15:00 +8°C° 1.7 mm 2 mps 733 mmHg 92%
    16:00 +8°C° 1.7 mm 2 mps 733 mmHg 92%
    17:00 +8°C° 0.7 mm 2 mps 733 mmHg 91%
    18:00 +9°C° 0.7 mm 1 mps 733 mmHg 90%
    19:00 +10°C° 0.7 mm 1 mps 733 mmHg 90%
    20:00 +10°C° 0.3 mm 1 mps 733 mmHg 89%
    21:00 +10°C° 0.3 mm 1 mps 733 mmHg 88%
    22:00 +9°C° 0.3 mm 2 mps 733 mmHg 87%
    23:00 +10°C° 0.2 mm 1 mps 733 mmHg 86%
    Show more